Volver al catálogo

ALICE

ActivoCienciaLEO
NORAD 39467·PAYLOAD·🇺🇸 United States

Lanzado Dec 6, 2013 desde Vandenberg Space Force Base

Loading…

Próximos Pases (próximas 24 horas)

TLE

ActualizadoSource: Space-Track

Época: Sep 14, 2026, 08:05 UTC

1 39467U 13072F   26257.33694453  .00009730  00000-0  43469-3 0  9999
2 39467 120.4628 279.6257 0169805  89.0501 273.0018 15.10251866128731

Sigue ALICE en tiempo real con AllMySat

Download on the App Store